Weather History for Pittsfield, IL

Change the Weather History Date:

Friday, December 6, 2013

  Actual Average (KUIN) Record (KUIN)
Temperature  
Mean Temperature 18 °F 33 °F  
Max Temperature 22 °F 40 °F 69 °F (1951)
Min Temperature 12 °F 25 °F 0 °F (1976)
Degree Days  
Heating Degree Days 48 32  
Month to date heating degree days 188  
Since 1 July heating degree days 1288  
Cooling Degree Days 0 0  
Month to date cooling degree days 0  
Year to date cooling degree days 1094  
Moisture  
Dew Point 7 °F    
Average Humidity 62    
Maximum Humidity 71    
Minimum Humidity 49    
Precipitation  
Precipitation 0.00 in 0.08 in 1.44 in (1998)
Month to date precipitation 0.52  
Year to date precipitation 35.60  
Sea Level Pressure  
Sea Level Pressure 30.44 in    
Wind  
Wind Speed 12 mph (NNW)    
Max Wind Speed 15 mph    
Max Gust Speed 18 mph    
Visibility 10 miles    
Events      
T = Trace of Precipitation, MM = Missing Value Source: NWS Daily Summary

Daily Weather History Graph

Daily Weather History Graph

Search for Another Location

Airport:

Trip Planner

Search our weather history database for the weather conditions in past years. The results will help you decide how hot, cold, wet, or windy it might be!

Date:

Astronomy

Dec. 06, 2013 Rise Set
Actual Time 7:09 AM CST 4:38 PM CST
Civil Twilight 6:39 AM CST 5:08 PM CST
Nautical Twilight 6:06 AM CST 5:42 PM CST
Astronomical Twilight 5:33 AM CST 6:15 PM CST
Moon 10:15 AM CST (12/6) 9:10 PM CST (12/6)
Length of Visible Light 10h 29m
Length of Day
9h 29m
Waxing Crescent, 19% of the Moon is Illuminated
Dec 6
Waxing Crescent
Dec 9
First Quarter
Dec 17
Full
Dec 25
Last Quarter
Jan 1
New

Hourly Weather History & Observations

Time (CST) Temp. Windchill Dew Point Humidity Pressure Visibility Wind Dir Wind Speed Gust Speed Precip Events Conditions
12:15 AM 22.1 °F 9.5 °F 11.1 °F 63% 30.32 in 10.0 mi NNW 13.8 mph - N/A   Overcast
12:35 AM 21.7 °F 9.6 °F 10.6 °F 62% 30.32 in 10.0 mi NNW 12.7 mph - N/A   Overcast
12:55 AM 21.7 °F 9.0 °F 10.9 °F 63% 30.33 in 10.0 mi NNW 13.8 mph - N/A   Overcast
1:15 AM 21.7 °F 11.5 °F 11.5 °F 65% 30.32 in 10.0 mi NNW 9.2 mph - N/A   Overcast
1:35 AM 21.7 °F 10.2 °F 11.7 °F 65% 30.32 in 10.0 mi NNW 11.5 mph - N/A   Overcast
1:55 AM 21.6 °F 9.9 °F 11.8 °F 66% 30.34 in 10.0 mi NW 11.5 mph - N/A   Overcast
2:15 AM 21.2 °F 9.5 °F 11.5 °F 66% 30.32 in 10.0 mi NNW 11.5 mph - N/A   Overcast
2:35 AM 21.0 °F 8.1 °F 11.3 °F 66% 30.33 in 10.0 mi NNW 13.8 mph - N/A   Overcast
2:55 AM 20.5 °F 7.4 °F 11.3 °F 68% 30.34 in 10.0 mi NNW 13.8 mph - N/A   Overcast
3:15 AM 20.3 °F 7.2 °F 11.3 °F 68% 30.34 in 10.0 mi NNW 13.8 mph - N/A   Overcast
3:35 AM 20.3 °F 6.6 °F 11.3 °F 68% 30.34 in 10.0 mi NNW 15.0 mph - N/A   Overcast
3:55 AM 20.3 °F 7.2 °F 10.9 °F 67% 30.34 in 10.0 mi NNW 13.8 mph - N/A   Overcast
4:15 AM 19.9 °F 7.3 °F 10.2 °F 66% 30.33 in 10.0 mi NNW 12.7 mph - N/A   Overcast
4:35 AM 19.9 °F 6.2 °F 10.0 °F 65% 30.33 in 10.0 mi NNW 15.0 mph - N/A   Overcast
4:55 AM 19.9 °F 7.9 °F 10.2 °F 66% 30.34 in 10.0 mi NNW 11.5 mph - N/A   Overcast
5:15 AM 19.9 °F 6.7 °F 10.2 °F 66% 30.35 in 10.0 mi NW 13.8 mph - N/A   Overcast
5:35 AM 19.4 °F 7.2 °F 10.0 °F 67% 30.37 in 10.0 mi NW 11.5 mph - N/A   Overcast
5:55 AM 19.4 °F 6.6 °F 9.3 °F 65% 30.36 in 10.0 mi North 12.7 mph 16.1 mph N/A   Overcast
6:15 AM 19.4 °F 7.2 °F 9.5 °F 65% 30.35 in 10.0 mi North 11.5 mph - N/A   Scattered Clouds
6:35 AM 19.0 °F 6.8 °F 9.3 °F 66% 30.36 in 10.0 mi NNW 11.5 mph - N/A   Mostly Cloudy
6:55 AM 19.0 °F 5.6 °F 9.3 °F 66% 30.38 in 10.0 mi NNW 13.8 mph - N/A   Overcast
7:15 AM 18.5 °F 6.8 °F 8.8 °F 66% 30.39 in 10.0 mi NNW 10.4 mph - N/A   Overcast
7:35 AM 18.1 °F 5.0 °F 8.2 °F 65% 30.39 in 10.0 mi North 12.7 mph - N/A   Overcast
7:55 AM 18.0 °F 5.4 °F 8.4 °F 66% 30.40 in 10.0 mi North 11.5 mph - N/A   Overcast
8:15 AM 17.6 °F 6.4 °F 8.1 °F 66% 30.41 in 10.0 mi NNW 9.2 mph 18.4 mph N/A   Overcast
8:35 AM 17.6 °F 4.3 °F 8.6 °F 68% 30.43 in 10.0 mi NNW 12.7 mph - N/A   Overcast
8:55 AM 17.6 °F 3.7 °F 8.2 °F 67% 30.41 in 10.0 mi NNW 13.8 mph - N/A   Overcast
9:15 AM 17.4 °F 4.1 °F 7.5 °F 65% 30.40 in 10.0 mi North 12.7 mph - N/A   Mostly Cloudy
9:35 AM 17.8 °F 5.2 °F 7.7 °F 65% 30.45 in 10.0 mi NNW 11.5 mph 16.1 mph N/A   Scattered Clouds
9:55 AM 17.4 °F 6.2 °F 7.2 °F 64% 30.43 in 10.0 mi North 9.2 mph - N/A   Scattered Clouds
10:15 AM 17.6 °F 5.0 °F 6.8 °F 63% 30.43 in 10.0 mi NNW 11.5 mph - N/A   Clear
10:35 AM 17.2 °F 3.9 °F 5.9 °F 61% 30.41 in 10.0 mi NNW 12.7 mph 16.1 mph N/A   Clear
10:55 AM 17.2 °F 3.9 °F 5.9 °F 61% 30.44 in 10.0 mi NNW 12.7 mph - N/A   Scattered Clouds
11:15 AM 17.4 °F 5.4 °F 6.1 °F 61% 30.42 in 10.0 mi NNW 10.4 mph - N/A   Mostly Cloudy
11:35 AM 17.6 °F 6.4 °F 6.4 °F 62% 30.43 in 10.0 mi NNW 9.2 mph - N/A   Scattered Clouds
11:55 AM 17.6 °F 5.0 °F 6.4 °F 62% 30.43 in 10.0 mi NNW 11.5 mph - N/A   Mostly Cloudy
12:15 PM 17.6 °F 7.3 °F 6.3 °F 61% 30.43 in 10.0 mi NNW 8.1 mph - N/A   Overcast
12:35 PM 17.6 °F 5.7 °F 5.5 °F 59% 30.44 in 10.0 mi North 10.4 mph 17.3 mph N/A   Overcast
12:55 PM 17.4 °F 4.7 °F 4.5 °F 57% 30.40 in 10.0 mi North 11.5 mph - N/A   Overcast
1:15 PM 17.6 °F 4.3 °F 4.6 °F 57% 30.42 in 10.0 mi NNW 12.7 mph - N/A   Overcast
1:35 PM 17.8 °F 4.0 °F 4.3 °F 56% 30.42 in 10.0 mi NNW 13.8 mph - N/A   Overcast
1:55 PM 18.5 °F 6.1 °F 5.0 °F 56% 30.42 in 10.0 mi North 11.5 mph - N/A   Overcast
2:15 PM 18.5 °F 5.5 °F 4.1 °F 54% 30.41 in 10.0 mi NNW 12.7 mph - N/A   Overcast
2:35 PM 18.5 °F 4.3 °F 4.1 °F 54% 30.42 in 10.0 mi NW 15.0 mph - N/A   Overcast
2:55 PM 19.2 °F 6.4 °F 4.5 °F 53% 30.43 in 10.0 mi NNW 12.7 mph - N/A   Overcast
3:15 PM 19.2 °F 9.3 °F 3.7 °F 51% 30.44 in 10.0 mi NNW 8.1 mph 17.3 mph N/A   Overcast
3:35 PM 19.2 °F 5.8 °F 3.6 °F 51% 30.44 in 10.0 mi NNW 13.8 mph - N/A   Overcast
3:55 PM 19.0 °F 7.5 °F 3.0 °F 50% 30.45 in 10.0 mi NNW 10.4 mph - N/A   Overcast
4:15 PM 19.0 °F 7.5 °F 2.8 °F 49% 30.46 in 10.0 mi NNW 10.4 mph - N/A   Overcast
4:35 PM 18.5 °F 6.1 °F 2.3 °F 49% 30.47 in 10.0 mi NNW 11.5 mph - N/A   Overcast
5:55 PM 18.0 °F 6.1 °F 3.6 °F 53% 30.49 in 10.0 mi NNW 10.4 mph - N/A   Mostly Cloudy
6:15 PM 17.6 °F 8.2 °F 3.9 °F 55% 30.50 in 10.0 mi NW 6.9 mph - N/A   Scattered Clouds
6:35 PM 17.6 °F 8.2 °F 3.7 °F 55% 30.50 in 10.0 mi NW 6.9 mph - N/A   Scattered Clouds
6:55 PM 17.1 °F 5.0 °F 3.6 °F 56% 30.51 in 10.0 mi NNW 10.4 mph - N/A   Clear
7:15 PM 16.7 °F 6.2 °F 3.2 °F 55% 30.52 in 10.0 mi NNW 8.1 mph - N/A   Scattered Clouds
7:35 PM 16.2 °F 5.5 °F 3.9 °F 59% 30.53 in 10.0 mi NNW 8.1 mph - N/A   Scattered Clouds
7:55 PM 16.2 °F 4.7 °F 3.4 °F 57% 30.53 in 10.0 mi NNW 9.2 mph - N/A   Clear
8:15 PM 16.2 °F 5.5 °F 3.4 °F 57% 30.54 in 10.0 mi NNW 8.1 mph - N/A   Clear
8:35 PM 15.8 °F 2.7 °F 3.4 °F 58% 30.55 in 10.0 mi NNW 11.5 mph - N/A   Scattered Clouds
8:55 PM 15.6 °F 4.0 °F 4.1 °F 60% 30.56 in 10.0 mi NNW 9.2 mph - N/A   Scattered Clouds
9:15 PM 14.9 °F 4.0 °F 4.3 °F 63% 30.57 in 10.0 mi NNW 8.1 mph - N/A   Clear
9:35 PM 14.7 °F 2.9 °F 4.6 °F 64% 30.57 in 10.0 mi NNW 9.2 mph - N/A   Clear
9:55 PM 14.0 °F 2.0 °F 5.0 °F 67% 30.58 in 10.0 mi NNW 9.2 mph - N/A   Clear
10:15 PM 14.0 °F -0.8 °F 5.0 °F 67% 30.59 in 10.0 mi NNW 13.8 mph - N/A   Scattered Clouds
10:35 PM 13.6 °F 2.5 °F 5.0 °F 68% 30.60 in 10.0 mi NNW 8.1 mph - N/A   Scattered Clouds
10:55 PM 13.5 °F 0.5 °F 5.0 °F 69% 30.61 in 10.0 mi NNW 10.4 mph - N/A   Clear
11:15 PM 13.1 °F 1.8 °F 5.0 °F 70% 30.61 in 10.0 mi NNW 8.1 mph - N/A   Clear
11:35 PM 13.1 °F 0.1 °F 5.0 °F 70% 30.62 in 10.0 mi NNW 10.4 mph - N/A   Clear
11:55 PM 12.9 °F 1.6 °F 5.0 °F 71% 30.62 in 10.0 mi NNW 8.1 mph - N/A   Clear